AUA91RM LOWL-EDDN

Flight info

Callsign AUA91RM
Flight time 0h 28m
Altitude 26000
Route LIDSI1W LIDSI DCT SUBEN T161 AKINI Z109 UPALA UPALA1T
Aircraft A320/M-SDE3FGHIRWY/LB1

Departure

Time 2026-04-22 17:33
Airport Linz-Hörsching Airport (LOWL)

Arrival

Time 2026-04-22 18:02
Airport Nuremberg Airport (EDDN)
Time Latitude Longitude Altitude Speed Heading
2026-04-22 17:02 48.23842 14.19145 986 ft 0 kts 265°
2026-04-22 17:27 48.23842 14.19137 982 ft 3 kts 265°
2026-04-22 17:28 48.23825 14.19088 987 ft 7 kts 221°
2026-04-22 17:28 48.23789 14.19079 981 ft 3 kts 178°
2026-04-22 17:28 48.23762 14.19094 988 ft 6 kts 143°
2026-04-22 17:28 48.23755 14.19186 983 ft 10 kts 86°
2026-04-22 17:29 48.23760 14.19294 978 ft 11 kts 86°
2026-04-22 17:29 48.23764 14.19413 973 ft 12 kts 88°
2026-04-22 17:29 48.23767 14.19530 975 ft 10 kts 87°
2026-04-22 17:29 48.23734 14.19608 972 ft 9 kts 155°
2026-04-22 17:30 48.23663 14.19652 968 ft 16 kts 158°
2026-04-22 17:30 48.23542 14.19724 978 ft 19 kts 159°
2026-04-22 17:30 48.23422 14.19793 977 ft 19 kts 159°
2026-04-22 17:30 48.23365 14.19936 975 ft 16 kts 90°
2026-04-22 17:31 48.23371 14.20088 977 ft 13 kts 87°
2026-04-22 17:31 48.23375 14.20218 976 ft 12 kts 87°
2026-04-22 17:31 48.23379 14.20352 974 ft 13 kts 87°
2026-04-22 17:31 48.23387 14.20474 975 ft 11 kts 85°
2026-04-22 17:32 48.23395 14.20601 986 ft 13 kts 70°
2026-04-22 17:32 48.23406 14.20700 982 ft 8 kts 150°
2026-04-22 17:32 48.23391 14.20665 986 ft 3 kts 262°
2026-04-22 17:32 48.23390 14.20646 981 ft 1 kts 265°
2026-04-22 17:33 48.23390 14.20640 980 ft 9 kts 266°
2026-04-22 17:33 48.23358 14.19797 976 ft 106 kts 266°
2026-04-22 17:33 48.23306 14.18407 987 ft 158 kts 266°
2026-04-22 17:33 48.23240 14.16769 1636 ft 155 kts 267°
2026-04-22 17:34 48.23167 14.15135 2294 ft 161 kts 269°
2026-04-22 17:34 48.23096 14.13320 2593 ft 186 kts 270°
2026-04-22 17:34 48.23030 14.11284 2943 ft 206 kts 270°
2026-04-22 17:34 48.22970 14.09029 3271 ft 229 kts 270°
2026-04-22 17:35 48.22896 14.06506 3655 ft 255 kts 269°
2026-04-22 17:35 48.22790 14.03756 4334 ft 268 kts 268°
2026-04-22 17:35 48.22678 14.00967 5412 ft 266 kts 269°
2026-04-22 17:35 48.22583 13.98185 6396 ft 269 kts 269°
2026-04-22 17:36 48.22488 13.95362 7249 ft 274 kts 269°
2026-04-22 17:36 48.22401 13.92494 8122 ft 277 kts 273°
2026-04-22 17:36 48.22644 13.89622 9001 ft 278 kts 288°
2026-04-22 17:36 48.23354 13.86926 9883 ft 279 kts 302°
2026-04-22 17:37 48.24343 13.84371 10445 ft 294 kts 303°
2026-04-22 17:37 48.25419 13.81608 10703 ft 318 kts 303°
2026-04-22 17:37 48.26554 13.78677 11202 ft 330 kts 303°
2026-04-22 17:37 48.27709 13.75667 11913 ft 336 kts 303°
2026-04-22 17:38 48.28868 13.72633 12651 ft 341 kts 304°
2026-04-22 17:38 48.30059 13.69518 13383 ft 346 kts 304°
2026-04-22 17:38 48.31275 13.66369 14092 ft 350 kts 305°
2026-04-22 17:38 48.32509 13.63189 14732 ft 354 kts 305°
2026-04-22 17:39 48.33757 13.59973 15398 ft 358 kts 304°
2026-04-22 17:39 48.35016 13.56719 16071 ft 361 kts 304°
2026-04-22 17:39 48.37555 13.50124 17397 ft 367 kts 304°
2026-04-22 17:40 48.38837 13.46781 18047 ft 371 kts 304°
2026-04-22 17:40 48.40136 13.43398 18650 ft 374 kts 303°
2026-04-22 17:40 48.41440 13.39995 19203 ft 377 kts 303°
2026-04-22 17:40 48.42751 13.36565 19748 ft 380 kts 303°
2026-04-22 17:41 48.44074 13.33100 20280 ft 383 kts 303°
2026-04-22 17:41 48.45405 13.29600 20814 ft 387 kts 303°
2026-04-22 17:41 48.46748 13.26066 21326 ft 390 kts 303°
2026-04-22 17:41 48.48083 13.22557 21843 ft 393 kts 303°
2026-04-22 17:42 48.49466 13.18923 22364 ft 396 kts 303°
2026-04-22 17:42 48.50842 13.15306 22857 ft 399 kts 303°
2026-04-22 17:42 48.51758 13.12896 23177 ft 401 kts 303°
2026-04-22 17:42 48.53921 13.08394 23815 ft 401 kts 314°
2026-04-22 17:43 48.55746 13.05205 24256 ft 401 kts 314°
2026-04-22 17:43 48.57583 13.02006 24636 ft 405 kts 315°
2026-04-22 17:43 48.59441 12.98780 24970 ft 410 kts 315°
2026-04-22 17:43 48.61321 12.95517 25349 ft 413 kts 315°
2026-04-22 17:44 48.63209 12.92230 25739 ft 415 kts 314°
2026-04-22 17:44 48.65106 12.88907 26113 ft 418 kts 314°
2026-04-22 17:44 48.67003 12.85581 26238 ft 416 kts 314°
2026-04-22 17:44 48.68871 12.82296 26261 ft 408 kts 314°
2026-04-22 17:45 48.70716 12.79049 26261 ft 406 kts 314°
2026-04-22 17:45 48.72560 12.75811 26260 ft 405 kts 315°
2026-04-22 17:45 48.74384 12.72607 26065 ft 397 kts 315°
2026-04-22 17:45 48.76174 12.69458 25615 ft 391 kts 315°
2026-04-22 17:46 48.77939 12.66356 25130 ft 388 kts 315°
2026-04-22 17:46 48.79697 12.63265 24643 ft 385 kts 315°
2026-04-22 17:46 48.81438 12.60201 24158 ft 382 kts 315°
2026-04-22 17:46 48.83167 12.57150 23640 ft 379 kts 315°
2026-04-22 17:47 48.84883 12.54116 23079 ft 377 kts 315°
2026-04-22 17:47 48.86582 12.51098 22526 ft 376 kts 315°
2026-04-22 17:47 48.88247 12.48126 22042 ft 373 kts 315°
2026-04-22 17:47 48.89922 12.45134 21574 ft 370 kts 315°
2026-04-22 17:48 48.91045 12.43131 21260 ft 368 kts 315°
2026-04-22 17:48 48.93230 12.39237 20661 ft 364 kts 315°
2026-04-22 17:48 48.94863 12.36322 20212 ft 361 kts 314°
2026-04-22 17:48 48.95960 12.34363 19924 ft 359 kts 314°
2026-04-22 17:49 48.97576 12.31475 19501 ft 356 kts 314°
2026-04-22 17:49 48.99173 12.28617 19087 ft 353 kts 314°
2026-04-22 17:49 49.00761 12.25777 18678 ft 351 kts 314°
2026-04-22 17:49 49.02334 12.22957 18235 ft 348 kts 314°
2026-04-22 17:50 49.03896 12.20154 17767 ft 346 kts 314°
2026-04-22 17:50 49.05431 12.17402 17318 ft 344 kts 314°
2026-04-22 17:50 49.06975 12.14633 16880 ft 342 kts 314°
2026-04-22 17:50 49.08508 12.11874 16449 ft 339 kts 314°
2026-04-22 17:51 49.10029 12.09129 15960 ft 339 kts 314°
2026-04-22 17:51 49.11565 12.06358 15316 ft 344 kts 314°
2026-04-22 17:51 49.13116 12.03553 14689 ft 348 kts 314°
2026-04-22 17:51 49.14686 12.00716 14067 ft 351 kts 314°
2026-04-22 17:52 49.16265 11.97860 13392 ft 353 kts 314°
2026-04-22 17:52 49.17853 11.94982 12733 ft 355 kts 313°
2026-04-22 17:52 49.19442 11.92093 12078 ft 355 kts 313°
2026-04-22 17:52 49.21027 11.89209 11573 ft 351 kts 313°
2026-04-22 17:53 49.22599 11.86347 10954 ft 352 kts 313°
2026-04-22 17:53 49.24168 11.83487 10427 ft 349 kts 313°
2026-04-22 17:53 49.25697 11.80690 10248 ft 335 kts 313°
2026-04-22 17:53 49.27164 11.78003 10120 ft 322 kts 313°
2026-04-22 17:54 49.28572 11.75423 9993 ft 309 kts 313°
2026-04-22 17:54 49.29927 11.72946 9795 ft 300 kts 313°
2026-04-22 17:54 49.31277 11.70482 9256 ft 303 kts 313°
2026-04-22 17:54 49.32617 11.68035 8729 ft 304 kts 313°
2026-04-22 17:55 49.33993 11.65514 8254 ft 304 kts 312°
2026-04-22 17:55 49.35345 11.63031 7793 ft 303 kts 311°
2026-04-22 17:55 49.36685 11.60571 7332 ft 295 kts 311°
2026-04-22 17:55 49.37956 11.58237 6885 ft 282 kts 311°
2026-04-22 17:56 49.39186 11.55980 6441 ft 271 kts 311°
2026-04-22 17:56 49.40370 11.53799 6122 ft 256 kts 312°
2026-04-22 17:56 49.41457 11.51788 5972 ft 236 kts 312°
2026-04-22 17:56 49.42481 11.49893 5611 ft 228 kts 312°
2026-04-22 17:57 49.43490 11.48031 5152 ft 225 kts 312°
2026-04-22 17:57 49.44477 11.46207 4856 ft 213 kts 311°
2026-04-22 17:57 49.45332 11.44502 5225 ft 205 kts 311°
2026-04-22 17:57 49.46140 11.42730 5254 ft 204 kts 297°
2026-04-22 17:58 49.46558 11.40632 5088 ft 206 kts 283°
2026-04-22 17:58 49.46804 11.38449 4833 ft 208 kts 282°
2026-04-22 17:58 49.47029 11.36231 4549 ft 211 kts 281°
2026-04-22 17:58 49.47256 11.33983 4260 ft 214 kts 281°
2026-04-22 17:59 49.47483 11.31732 3969 ft 217 kts 281°
2026-04-22 17:59 49.47714 11.29437 3691 ft 216 kts 281°
2026-04-22 17:59 49.47941 11.27171 3379 ft 213 kts 282°
2026-04-22 17:59 49.48164 11.24945 3116 ft 209 kts 281°
2026-04-22 18:00 49.48313 11.23463 2914 ft 207 kts 281°
2026-04-22 18:00 49.48592 11.20663 2558 ft 192 kts 282°
2026-04-22 18:00 49.48788 11.18697 2318 ft 179 kts 282°
2026-04-22 18:00 49.48965 11.16906 2079 ft 162 kts 283°
2026-04-22 18:01 49.49133 11.15249 1810 ft 152 kts 283°
2026-04-22 18:01 49.49285 11.13690 1593 ft 145 kts 282°
2026-04-22 18:01 49.49432 11.12173 1378 ft 143 kts 283°
2026-04-22 18:01 49.49582 11.10668 1229 ft 142 kts 283°
2026-04-22 18:02 49.49734 11.09180 1047 ft 138 kts 282°
2026-04-22 18:02 49.49862 11.07949 1033 ft 92 kts 278°
2026-04-22 18:02 49.49927 11.07233 1026 ft 44 kts 278°
2026-04-22 18:02 49.49890 11.07020 1021 ft 14 kts 193°
2026-04-22 18:03 49.49808 11.07059 1021 ft 12 kts 159°
2026-04-22 18:03 49.49751 11.07110 1023 ft 7 kts 126°
2026-04-22 18:03 49.49741 11.07161 1023 ft 3 kts 104°
2026-04-22 18:03 49.49739 11.07172 1024 ft 0 kts 104°
2026-04-22 18:04 49.49739 11.07173 1024 ft 0 kts 104°
2026-04-22 18:04 49.49735 11.07191 1023 ft 6 kts 109°
2026-04-22 18:05 49.49705 11.07229 1025 ft 5 kts 165°
2026-04-22 18:05 49.49674 11.07227 1026 ft 4 kts 186°
2026-04-22 18:05 49.49651 11.07231 1027 ft 2 kts 162°
2026-04-22 18:05 49.49636 11.07268 1027 ft 7 kts 101°
2026-04-22 18:06 49.49628 11.07348 1026 ft 7 kts 99°
2026-04-22 18:06 49.49621 11.07409 1027 ft 5 kts 98°
2026-04-22 18:06 49.49617 11.07457 1028 ft 6 kts 98°
2026-04-22 18:06 49.49611 11.07516 1028 ft 5 kts 98°
2026-04-22 18:07 49.49607 11.07556 1028 ft 3 kts 98°
2026-04-22 18:07 49.49600 11.07617 1027 ft 9 kts 98°
2026-04-22 18:07 49.49593 11.07695 1029 ft 5 kts 99°
2026-04-22 18:07 49.49576 11.07735 1029 ft 4 kts 149°
2026-04-22 18:08 49.49545 11.07729 1024 ft 6 kts 186°
2026-04-22 18:08 49.49524 11.07725 1025 ft 2 kts 188°
2026-04-22 18:08 49.49523 11.07725 1027 ft 0 kts 188°